sat.trackr.live / text

‹ back to catalog

STARLINK-5681

NORAD 55469 · 2023-015W

PAYLOAD ACTIVE UNKNOWN

§ Identity

Operator
Country
US
Launch date
2023-02-02
Launch site
AFETR
Launch vehicle
Mass (kg)
RCS (m²)

Purposes: comms

External: N2YO · Heavens-Above · Gunter

§ Orbital elements

Epoch: 2026-05-24T23:56:32.742816Z

Period
94.27 min
Inclination
43.0033°
Eccentricity
0.0001275
Mean motion
15.27578949 rev/d
Perigee alt
482.2 km
Apogee alt
483.9 km
Semi-major
6,861.2 km
B*
3.6042e-5
RAAN
257.6575°
Arg perigee
273.6064°
Mean anomaly
86.4642°
Rev number
18,239

§ Raw data

STARLINK-56811 55469U 23015W   26144.99760119  .00000730  00000+0  36042-4 0  99972 55469  43.0033 257.6575 0001275 273.6064  86.4642 15.27578949182394

JSON: /api/v1/satellites/55469 · /tle

For live sub-satellite position, see the globe view (requires WebGL).

§ Visibility from observer

Set your observer location to see the next 7 days of passes ≥ 10°. The values pass through the URL so the page stays shareable.

No JS? Fill the form by hand. The geolocation button needs JavaScript.